Retour au catalogue

ARIANE 5 R/B

ActifHEO
NORAD 40148·ROCKET BODY·🇫🇷 France

Lancé Sep 11, 2014 depuis Guiana Space Centre

Loading…

Prochains Passages (prochaines 24 heures)

TLE

FraisSource: Space-Track

Époque: Sep 14, 2026, 02:11 UTC

1 40148U 14054C   26257.09103709  .00000907  00000-0  33774-3 0  9995
2 40148   6.1011 350.3754 7017115  94.8993 341.2726  2.61078656106158

Suivez ARIANE 5 R/B en temps réel avec AllMySat

Download on the App Store